Weather Service Report


797 
ASUS44 KFWD 271815
RWRTX 
NORTH TEXAS HOURLY WEATHER ROUNDUP
NATIONAL WEATHER SERVICE FORT WORTH TX
100 PM CDT WED MAY 27 2015

NOTE: "FAIR" INDICATES FEW OR NO CLOUDS BELOW 12,000 FEET WITH NO
SIGNIFICANT WEATHER AND/OR OBSTRUCTIONS TO VISIBILITY.

TXZ118-119-271900-
DALLAS/FORT WORTH METROPLEX
  
CITY           SKY/WX    TMP DP  RH WIND       PRES   REMARKS
DFW AIRPORT    FAIR      81  63  54 S12       30.08F                  
6HR MIN TEMP:  61; 6HR MAX TEMP:  81;                                

DALLAS LOVE    FAIR      83  64  52 VRB6      30.09F                  
6HR MIN TEMP:  64; 6HR MAX TEMP:  83;                                

FTW MEACHAM    FAIR      83  67  58 SE14      30.07F                  
6HR MIN TEMP:  64; 6HR MAX TEMP:  83;                                

DAL-EXECUTIVE  FAIR      77  63  61 SE8       30.08F                  
6HR MIN TEMP:  63; 6HR MAX TEMP:  77;                                

FTW-ALLIANCE   FAIR      82  66  58 S8        30.08F                  
6HR MIN TEMP:  59; 6HR MAX TEMP:  82;                                

FTW-NAS-JRB    FAIR      83  67  58 S9G20     30.08F                  
6HR MIN TEMP:  64; 6HR MAX TEMP:  83;                                

FTW-SPINKS     PTSUNNY   82  66  57 SE9       30.10F                  
ARLINGTON      FAIR      83  64  52 SE7       30.08F                  
6HR MIN TEMP:  63; 6HR MAX TEMP:  83;                                

ADDISON        MOSUNNY   81  63  54 SE12      30.09                   
MESQUITE       PTSUNNY   81  64  57 S5        30.10F                  
LANCASTER      FAIR      81  63  52 SE5       30.10S                  
6HR MIN TEMP:  62; 6HR MAX TEMP:  82;                                

$$

TXZ091>094-102>105-117-120-121-131>134-271900-
NORTH CENTRAL TEXAS
  
CITY           SKY/WX    TMP DP  RH WIND       PRES   REMARKS
SHRMAN/DENISON PTSUNNY   83  66  56 SE10      30.11S                  
6HR MIN TEMP:  62; 6HR MAX TEMP:  83;                                

GAINESVILLE    FAIR      80  63  55 SE13      30.11S                  
6HR MIN TEMP:  61; 6HR MAX TEMP:  80;                                

BOWIE          PTSUNNY   78  67  68 S8        30.08F                  
6HR MIN TEMP:  59; 6HR MAX TEMP:  79;                                

BRIDGEPORT     PTSUNNY   83  71  67 S8        30.10S                  
6HR MIN TEMP:  59; 6HR MAX TEMP:  83;                                

DECATUR        FAIR      78  64  60 S7        30.09F                  
6HR MIN TEMP:  61; 6HR MAX TEMP:  79;                                

DENTON         FAIR      82  65  56 SE14      30.08F                  
6HR MIN TEMP:  59; 6HR MAX TEMP:  82;                                

MCKINNEY       CLOUDY    79  62  56 S12       30.10F                  
6HR MIN TEMP:  62; 6HR MAX TEMP:  80;                                

GREENVILLE     FAIR      81  59  47 CALM      30.11S                  
ROCKWALL       CLOUDY   N/A N/A N/A S5        30.09F                  
TERRELL        PTSUNNY   80  66  62 S5        30.10F                  
6HR MIN TEMP:  63; 6HR MAX TEMP:  80; 6HR PCP: TRACE;                

WAXAHACHIE     FAIR      80  67  63 SE7       30.10F                  
6HR MIN TEMP:  62; 6HR MAX TEMP:  80;                                

CLEBURNE       FAIR      81  70  69 S9        30.11S                  
GRANBURY       CLOUDY    82  69  64 SE6       30.09F                  
6HR MIN TEMP:  63; 6HR MAX TEMP:  82;                                

$$

TXZ083>090-098>101-113>116-127>130-139>142-154-155-271900-
WESTERN NORTH TEXAS
  
CITY           SKY/WX    TMP DP  RH WIND       PRES   REMARKS
WICHITA FALLS  PTSUNNY   80  68  66 MISG      30.07F                  
6HR MIN TEMP:  63; 6HR MAX TEMP:  80;                                

WF-KICKAPOO    PTSUNNY   81  68  64 S9        30.08F                  
6HR MIN TEMP:  65; 6HR MAX TEMP:  81;                                

VERNON         CLOUDY    81  65  57 S12       30.08S                  
6HR MIN TEMP:  58; 6HR MAX TEMP:  88;                                

ABILENE        PTSUNNY   85  71  63 S13       30.07F HX  90           
6HR MIN TEMP:  68; 6HR MAX TEMP:  85;                                

ABILENE-DYESS  PTSUNNY   85  65  50 S12       30.05F                  
6HR MIN TEMP:  67; 6HR MAX TEMP:  85;                                

BRECKENRIDGE   CLOUDY    83  71  67 S7        30.06F                  
6HR MIN TEMP:  65; 6HR MAX TEMP:  83;                                

GRAHAM         FAIR      82  73  74 SE7       30.05F                  
6HR MIN TEMP:  62; 6HR MAX TEMP:  84;                                

MINERAL WELLS  PTSUNNY   79  70  74 SE12      30.07F                  
6HR MIN TEMP:  60; 6HR MAX TEMP:  81;                                

STEPHENVILLE   CLOUDY    78  69  74 SE9       30.12S                  
6HR MIN TEMP:  62; 6HR MAX TEMP:  80;                                

COMANCHE       FAIR      83  74  75 S10       30.08F HX  90           
6HR MIN TEMP:  64; 6HR MAX TEMP:  83;                                

BROWNWOOD      PTSUNNY   84  72  65 S13       30.07F                  
COLEMAN        PTSUNNY   84  72  67 S8G18     30.07F HX  90           
6HR MIN TEMP:  65; 6HR MAX TEMP:  84; 6HR PCP:  0.01;                

BRADY          MOSUNNY   86  70  58 SE10      30.07F HX  90           
$$

TXZ143>147-156>162-174-175-271900-
CENTRAL TEXAS
  
CITY           SKY/WX    TMP DP  RH WIND       PRES   REMARKS
WACO           FAIR      83  70  64 S8        30.08F                  
6HR MIN TEMP:  63; 6HR MAX TEMP:  83;                                

WACO-TSTC      SUNNY     82  70  65 S6        30.08F                  
WACO-MCGREGOR    N/A    N/A N/A N/A MISG        N/A                   
HILLSBORO      FAIR     N/A N/A N/A SE12      30.09F                  
CORSICANA      FAIR      83  67  58 SE9       30.10F                  
6HR MIN TEMP:  65; 6HR MAX TEMP:  83;                                

MEXIA          FAIR      80  70  73 SE8       30.08F                  
6HR MIN TEMP:  64; 6HR MAX TEMP:  80; 6HR PCP:  0.13;                

HEARNE         FAIR      83  73  71 SE7       30.08F HX  90           
6HR MIN TEMP:  65; 6HR MAX TEMP:  83; 6HR PCP:  0.01;                

CAMERON        FAIR      84  74  70 S8        30.08S HX  91           
6HR MIN TEMP:  65; 6HR MAX TEMP:  85;                                

TEMPLE         FAIR      82  70  65 SE13G21   30.07F                  
6HR MIN TEMP:  63; 6HR MAX TEMP:  82;                                

KILLEEN        PTSUNNY   79  72  78 SE10      30.07F                  
6HR MIN TEMP:  65; 6HR MAX TEMP:  81;                                

KILLEEN-SKYLRK PTSUNNY   81  70  69 SE12      30.08F                  
6HR MIN TEMP:  64; 6HR MAX TEMP:  81;                                

FORT HOOD      FAIR      81  72  75 S10       30.07F                  
6HR MIN TEMP:  64; 6HR MAX TEMP:  81;                                

GATESVILLE     FAIR      82  72  69 S7        30.10S                  
HAMILTON       FAIR      81  69  67 S13G22    30.10F                  
6HR MIN TEMP:  64; 6HR MAX TEMP:  81;                                

LAMPASAS       RAIN      83  73  73 S8G16     30.07F                  
6HR MIN TEMP:  63; 6HR MAX TEMP:  83;                                

$$

TXZ095>097-106>112-122>126-135>138-148>153-164>167-271900-
EAST TEXAS
  
CITY           SKY/WX    TMP DP  RH WIND       PRES   REMARKS
PARIS          FAIR      81  63  54 SE6       30.11F                  
6HR MIN TEMP:  63; 6HR MAX TEMP:  81;                                

SULPHUR SPRNGS FAIR      82  63  51 S5        30.12F                  
MOUNT PLEASANT FAIR      80  65  59 SE3       30.12F                  
6HR MIN TEMP:  65; 6HR MAX TEMP:  80;                                

GILMER         FAIR      81  68  66 CALM      30.10F                  
6HR MIN TEMP:  63; 6HR MAX TEMP:  81;                                

TYLER          PTSUNNY   82  66  58 SW6       30.10F                  
6HR MIN TEMP:  65; 6HR MAX TEMP:  82;                                

LONGVIEW       FAIR      81  67  62 SE5       30.09F                  
6HR MIN TEMP:  65; 6HR MAX TEMP:  81;                                

MARSHALL       FAIR      81  67  61 CALM      30.11F                  
6HR MIN TEMP:  68; 6HR MAX TEMP:  81;                                

ATHENS         PTSUNNY   79  66  65 CALM      30.08F                  
PALESTINE      FAIR      82  70  68 S6        30.10F                  
JACKSONVILLE   FAIR      79  67  68 S6        30.13F                  
NACOGDOCHES    FAIR      77  68  73 SW7       30.11R                  
6HR MIN TEMP:  64; 6HR MAX TEMP:  79;                                

LUFKIN         FAIR      80  69  69 S5        30.11S                  
6HR MIN TEMP:  67; 6HR MAX TEMP:  80; 6HR PCP: TRACE;                

$$

SUPPLEMENTAL OBSERVATIONS (CENTRAL)
  
CITY           SKY/WX    TMP DP  RH WIND       PRES   REMARKS
LAKE TEXOMA      N/A    N/A N/A N/A SE7         N/A                   
PAT MAYSE LAKE   N/A     79  59  50 SE8         N/A                   
GREENVILLE       N/A     82  59  44 S7          N/A                   
CEDAR HILL       N/A     84  66  54 S7          N/A                   
LAKE LIMESTONE   N/A     82  70  65 S6          N/A                   
MCGREGOR         N/A     82  72  69 S10         N/A                   
TEMPLE           N/A     84  72  65 S10         N/A                   
$$

SUPPLEMENTAL OBSERVATIONS (WEST)
  
CITY           SKY/WX    TMP DP  RH WIND       PRES   REMARKS
MILLERS CREEK    N/A     81  70  69 SE6         N/A                   
POSSUM KINGDOM   N/A     82  70  65 S9          N/A                   
GRANBURY         N/A     81  68  65 SE9         N/A                   
COMANCHE         N/A     82  72  69 S12         N/A                   
HAMBY            N/A     84  68  58 S12         N/A                   
IVIE RESERVOIR   N/A     86  68  54 S10         N/A                   

Return to Home page


Western Regional Climate Center, wrcc@dri.edu